This demonstration page uses our WeatherBlox Daily Observations layout. Learn more.

Left ArrowRight Arrow

Hourly Observations for February 16, 2022

Temp ( °F °C ) Dew Point ( °F °C ) Humidity (%) Winds ( mph kmh ) Pressure ( in mb ) Visibility ( mi km ) Precip ( " mm )
12:08 am 00:08 Cloudy with Light Snow 27 -3 25 -4 93 93 E 13 20 29.97 1015 3 5 0.00 0.00
12:53 am 00:53 Cloudy 26 -3.3 23 -5 88 88 E 10 17 29.93 1014 10 16 0.00 0.00
1:26 am 01:26 Cloudy with Light Snow 26 -3.3 23 -5 88 88 E 12 19 29.99 1015 3 4 0.00 0.00
1:32 am 01:32 Cloudy with Light Snow 26 -3.3 23 -5 88 88 E 12 19 29.99 1015 1 2 0.00 0.00
1:51 am 01:51 Cloudy with Light Snow 27 -3 23 -5 86 86 E 10 17 29.98 1015 2 2 0.01 0.25
1:53 am 01:53 Cloudy with Light Snow 26 -3.3 23 -5 88 88 E 10 17 29.94 1014 2 2 0.01 0.25
2:07 am 02:07 Cloudy with Light Snow 26 -3.3 23 -5 88 88 E 12 19 30.00 1016 2 3 0.00 0.00
2:15 am 02:15 Cloudy with Light Snow 25 -3.9 22 -5.6 88 88 ENE 15 24 30.01 1016 3 4 0.00 0.00
2:21 am 02:21 Cloudy with Light Snow 24 -4.4 21 -6.1 88 88 ENE 17 28 30.02 1017 3 5 0.00 0.00
2:34 am 02:34 Cloudy with Light Snow 24 -4.4 21 -6.1 88 88 ENE 17 28 30.03 1017 2 3 0.01 0.25
2:37 am 02:37 Cloudy with Light Snow 24 -4.4 21 -6.1 88 88 ENE 16 26 30.03 1017 2 3 0.01 0.25
2:53 am 02:53 Cloudy with Light Snow 23 -5 21 -6.1 92 92 ENE 18 30 29.98 1015 2 2 0.01 0.25
3:03 am 03:03 Cloudy with Light Snow 23 -5 19 -7.2 85 85 ENE 17 28 30.04 1017 2 3 0.00 0.00
3:12 am 03:12 Cloudy with Light Snow 22 -5.6 19 -7.2 89 89 ENE 18 30 30.06 1018 2 3 0.00 0.00
3:29 am 03:29 Windy with Snow Likely 21 -6.1 16 -8.9 81 81 ENE 20 31 30.08 1019 1 2 0.00 0.00
3:37 am 03:37 Windy with Snow Likely 20 -6.7 16 -8.9 85 85 NE 20 31 30.09 1019 2 2 0.01 0.25
3:53 am 03:53 Cloudy with Light Snow 20 -6.7 17 -8.3 89 89 ENE 17 28 30.02 1017 1 2 0.01 0.25
4:21 am 04:21 Cloudy with Light Snow 20 -6.7 16 -8.9 85 85 ENE 17 28 30.11 1020 2 3 0.01 0.25
4:29 am 04:29 Cloudy with Light Snow 20 -6.7 15 -9.4 81 81 ENE 16 26 30.12 1020 3 4 0.01 0.25
4:35 am 04:35 Cloudy with Light Snow 20 -6.7 15 -9.4 81 81 E 18 30 30.12 1020 3 5 0.01 0.25
4:53 am 04:53 Cloudy 20 -6.7 14 -10 78 78 E 12 19 30.06 1018 10 16 0.01 0.25
5:53 am 05:53 Cloudy 19 -7.2 14 -10 81 81 E 8 13 30.10 1019 10 16 0.00 0.00
6:53 am 06:53 Cloudy 19 -7.2 13 -10.6 77 77 ENE 7 11 30.14 1021 10 16 0.00 0.00
7:53 am 07:53 Mostly Cloudy 17 -8.3 8 -13.3 68 68 ENE 8 13 30.19 1022 10 16 0.00 0.00
8:53 am 08:53 Mostly Cloudy 18 -7.8 7 -13.9 62 62 E 3 6 30.24 1024 10 16 0.00 0.00
9:53 am 09:53 Mostly Sunny 21 -6.1 4 -15.6 47 47 ENE 5 7 30.27 1025 10 16 0.00 0.00
10:53 am 10:53 Partly Cloudy 21 -6.1 5 -15 50 50 ENE 3 6 30.29 1026 10 16 0.00 0.00
11:53 am 11:53 Cloudy 23 -5 6 -14.4 48 48 E 3 6 30.31 1026 10 16 0.00 0.00
12:53 pm 12:53 Mostly Cloudy 22 -5.6 6 -14.4 50 50 WSW 6 9 30.31 1027 10 16 0.00 0.00
1:53 pm 13:53 Cloudy 22 -5.6 8 -13.3 55 55 WSW 10 17 30.30 1026 10 16 0.00 0.00
2:53 pm 14:53 Sunny 24 -4.4 12 -11.1 60 60 WSW 9 15 30.29 1026 10 16 0.00 0.00
3:53 pm 15:53 Sunny 24 -4.4 12 -11.1 60 60 WSW 12 19 30.29 1026 10 16 0.00 0.00
4:53 pm 16:53 Mostly Sunny 23 -5 12 -11.1 63 63 WSW 14 22 30.29 1026 10 16 0.00 0.00
5:53 pm 17:53 Clear 20 -6.7 11 -11.7 68 68 SW 15 24 30.30 1026 10 16 0.00 0.00
6:53 pm 18:53 Clear 19 -7.2 10 -12.2 68 68 SW 15 24 30.31 1027 10 16 0.00 0.00
7:53 pm 19:53 Mostly Clear 19 -7.2 10 -12.2 68 68 SSW 13 20 30.31 1026 10 16 0.00 0.00
8:53 pm 20:53 Partly Cloudy 20 -6.7 12 -11.1 71 71 SW 15 24 30.29 1026 10 16 0.00 0.00
9:53 pm 21:53 Clear 22 -5.6 15 -9.4 75 75 SW 21 33 30.26 1025 10 16 0.00 0.00
10:53 pm 22:53 Clear 22 -5.6 14 -10 71 71 SW 17 28 30.24 1024 10 16 0.00 0.00
11:53 pm 23:53 Clear 22 -5.6 14 -10 71 71 SW 15 24 30.22 1023 10 16 0.00 0.00

Powered by AerisWeather